Location: Argagnon
(43.4500°N, 0.6833°W)
Time: 04:10:15
(UTC+00:00)

Daily predictions for brighter satellites

Satellite Brightness Start Highest point End
(mag) Time Altitude Azimuth Time Altitude Azimuth Time Altitude Azimuth
Cosmos 2228 Rocket 4.1 00:05:20 37° ENE 00:05:20 37° ENE 00:09:05 10° NNE
Cosmos 2082 Rocket 2.9 00:07:01 39° ESE 00:07:09 39° ESE 00:12:25 10° NE
Cosmos 1833 Rocket 3.0 00:08:10 50° WSW 00:09:16 60° WNW 00:14:50 10° NNE
BREEZE-M DEB (TANK) 3.7 00:13:11 49° ENE 00:13:11 49° ENE 00:19:01 10° ESE
Cosmos 724 4.1 00:12:02 70° SSW 00:12:45 84° ESE 00:18:37 10° NE
Cosmos 1140 Rocket 3.8 00:22:28 50° W 00:23:08 54° WNW 00:28:17 10° NNE
ATLAS CENTAUR R/B 4.3 00:11:05 10° NW 00:25:02 84° SW 00:31:03 28° SE
Cosmos 1707 4.4 00:26:20 26° NW 00:26:20 26° NW 00:28:43 10° NNW
USA 267 3.4 00:20:12 10° NE 00:26:41 70° NW 00:30:21 28° WSW
PSLV R/B 4.4 00:22:24 10° N 00:26:42 44° WNW 00:26:44 44° WNW
Cosmos 1441 Rocket 4.5 00:24:50 10° NNW 00:27:04 35° NNW 00:27:04 35° NNW
Cosmos 1400 Rocket 3.4 00:32:16 56° NNE 00:32:16 56° NNE 00:35:29 10° NNE
Cosmos 1869 Rocket 4.2 00:27:40 10° NNW 00:31:14 45° WNW 00:31:14 45° WNW
Cosmos 1733 Rocket 3.4 00:27:48 10° N 00:31:54 56° ENE 00:31:54 56° ENE
Resurs 1-4 Rocket 4.4 00:32:10 10° ENE 00:34:08 12° E 00:36:00 10° ESE
GP-B 3.4 00:31:02 10° N 00:35:02 59° WNW 00:35:02 59° WNW
H-2A R/B 2.9 00:34:47 10° N 00:38:57 41° WNW 00:38:59 41° WNW
Cosmos 676 Rocket 4.4 00:42:47 49° ESE 00:43:12 51° ESE 00:48:22 10° NNE
NOSS 3-4 (A) 3.8 00:36:17 10° NW 00:43:18 89° SW 00:47:10 34° SSE
NOSS 3-4 (C) 3.8 00:36:23 10° NW 00:43:23 89° WSW 00:47:19 33° SE
Cosmos 2251 Rocket 3.8 00:44:26 53° W 00:45:07 57° WNW 00:50:20 10° NNE
Cosmos 407 Rocket 3.9 00:44:27 47° W 00:45:15 52° WNW 00:50:25 10° NNE
Cosmos 1346 Rocket 3.6 00:41:51 10° N 00:45:17 45° ENE 00:45:17 45° ENE
Cosmos 468 Rocket 4.3 00:43:10 10° NNW 00:48:26 61° ENE 00:49:48 45° ESE
Cosmos 1954 Rocket 4.0 00:48:42 66° SE 00:49:11 71° ESE 00:54:30 10° NNE
Cosmos 2315 Rocket 4.2 00:43:08 10° NNW 00:49:17 58° W 00:50:26 50° SW
Cosmos 1190 Rocket 3.9 00:51:10 71° SW 00:51:43 83° WNW 00:57:03 10° NNE
Cosmos 1763 Rocket 3.3 00:52:32 10° NNW 00:57:51 76° WSW 00:58:19 70° SSW
Cosmos 2322 Rocket 4.5 00:54:50 10° N 00:59:05 21° NE 01:03:20 10° E
BREEZE-M R/B 4.5 00:59:28 29° SE 01:00:02 29° ESE 01:08:00 10° ENE
Cosmos 1300 3.8 00:57:03 10° NNW 00:59:22 36° NW 00:59:22 36° NW
SL-14 R/B 4.0 01:01:39 45° NW 01:01:39 45° NW 01:04:47 10° N
USA 234 3.1 00:56:30 18° SE 01:01:33 86° SW 01:08:09 10° NW
Cosmos 1862 Rocket 3.6 01:04:13 66° WNW 01:04:13 66° WNW 01:08:21 10° N
SL-8 R/B 3.9 00:59:22 10° WNW 01:04:08 69° NNE 01:08:54 10° ESE
Cosmos 1953 3.2 01:01:24 10° N 01:05:05 39° ENE 01:05:20 38° E
Cosmos 1697 Rocket 3.8 01:01:24 10° NW 01:05:44 29° W 01:05:44 29° W
Cosmos 1980 Rocket 2.3 01:07:57 10° NNW 01:13:31 55° WSW 01:14:01 53° SW
Nadezhda 1 Rocket 4.4 01:08:44 10° N 01:15:05 59° ENE 01:18:17 29° SSE
Cosmos 540 Rocket 3.3 01:11:08 10° NNW 01:16:17 72° WSW 01:16:52 65° SSW
MOZ.5/SAFIR/RUBIN 5/SL-8 4.1 01:18:21 43° SE 01:19:41 62° ENE 01:24:21 10° N
COSMOS 2406 3.3 01:19:32 48° SW 01:21:01 67° WNW 01:26:47 10° NNE
ADEOS II 4.0 01:17:38 10° NE 01:21:30 20° E 01:24:12 14° SE
Cosmos 1356 Rocket 3.9 01:22:17 48° WNW 01:22:17 48° WNW 01:26:05 10° N
Cosmos 2369 3.8 01:19:00 10° NNW 01:24:37 59° WSW 01:25:30 52° SSW
Lacrosse 5 rocket 2.8 01:20:58 10° NW 01:24:47 35° NNE 01:28:26 10° E
IDEFIX/ARIANE 42P 3.2 01:21:43 10° NNE 01:26:47 46° E 01:28:28 34° SE
Okean 1-7 2.9 01:30:04 71° WSW 01:30:16 73° W 01:34:35 10° N
Meteor 1-16 Rocket 4.2 01:26:39 10° NNW 01:32:19 69° W 01:33:51 48° SSW
Okean 3 4.2 01:34:53 38° WNW 01:34:53 38° WNW 01:38:39 10° N
Cosmos 1315 Rocket 2.6 01:39:37 85° SSE 01:39:43 88° E 01:43:39 10° N
SJ 16-02 2.9 01:39:50 21° SE 01:41:09 25° E 01:44:41 10° NE
Helios 1A Rocket 3.8 01:43:06 33° WNW 01:43:06 33° WNW 01:45:58 10° NNW
SL-16 R/B 2.5 01:38:23 10° NNW 01:44:03 65° ENE 01:49:03 13° SE
CZ-2C R/B 4.3 01:39:49 10° NNE 01:45:15 40° E 01:48:25 22° SSE
Cosmos 1850 Rocket 4.1 01:46:14 44° S 01:47:53 73° ESE 01:53:09 10° NNE
Cosmos 2082 Rocket 3.3 01:48:50 24° W 01:51:15 34° NW 01:56:26 10° N
Cosmos 1709 Rocket 4.1 01:49:42 32° S 01:52:50 74° E 01:59:12 10° NNE
Cosmos 1741 Rocket 4.0 01:51:18 43° S 01:53:00 76° ESE 01:58:15 10° NNE
SL-16 R/B 3.8 01:49:51 10° SE 01:55:36 40° ENE 02:01:22 10° N
Cosmos 1782 Rocket 3.5 01:53:47 10° N 01:58:11 80° E 01:59:39 41° SSE
Cosmos 1908 Rocket 3.8 01:54:35 10° NNW 01:58:53 50° W 01:59:24 47° WSW
CZ-2D R/B 2.3 01:54:41 10° NNE 02:00:09 68° ESE 02:02:42 32° S
Cosmos 2237 4.1 01:58:07 10° NNW 02:03:53 80° WSW 02:07:48 21° SSE
Cosmos 968 Rocket 3.6 02:02:10 36° S 02:04:09 67° ESE 02:09:15 10° NNE
Cosmos 1455 2.7 02:02:15 10° NNW 02:05:04 38° WNW 02:05:04 38° WNW
Genesis I 3.3 02:05:37 47° SE 02:05:55 49° ESE 02:09:21 10° NE
Cosmos 2360 Rocket 3.1 02:00:34 10° NNW 02:06:04 48° ENE 02:11:32 10° SE
DELTA 2 R/B (1) 3.6 02:06:58 29° WSW 02:09:37 58° S 02:15:04 10° ESE
RESURS DK-1 4.5 02:06:31 10° N 02:10:01 27° NE 02:13:31 10° ESE
MSX 3.8 02:07:23 10° NNE 02:13:09 83° WNW 02:16:00 31° SSW
Cosmos 841 Rocket 3.7 02:09:28 10° NNW 02:14:31 50° WSW 02:16:19 35° SSW
Resurs 1-4 Rocket 2.0 02:09:19 10° NNE 02:14:36 86° WNW 02:17:04 33° SSW
H-2A R/B 3.7 02:14:58 10° N 02:18:51 50° WNW 02:19:49 40° WSW
FENGYUN 3A 3.8 02:18:41 10° NNE 02:24:03 68° ESE 02:27:27 23° S
OAO 3 Rocket 4.0 02:24:07 30° S 02:24:07 30° S 02:28:20 10° SE
Meteor 1-4 Rocket 4.2 02:25:17 16° WNW 02:25:17 16° WNW 02:26:52 10° NNW
COBE Rocket 4.4 02:20:55 10° N 02:25:36 47° WNW 02:27:40 30° SW
Cosmos 2278 4.0 02:20:28 10° NW 02:25:54 46° WSW 02:28:37 27° SSW
SL-24 R/B 4.4 02:28:16 18° S 02:31:55 80° E 02:36:44 10° N
CZ-2C R/B 2.6 02:29:15 25° S 02:32:12 61° W 02:37:20 10° NNW
Cosmos 2242 Rocket 3.6 02:30:52 33° SSW 02:32:42 64° W 02:37:10 10° N
Timation 1 Rocket 4.5 02:32:20 27° SW 02:35:40 66° WNW 02:41:37 10° NNE
Cosmos 1825 4.3 02:33:45 10° SE 02:36:19 20° E 02:38:53 10° NE
Cosmos 2333 Rocket 2.4 02:33:21 10° NNW 02:39:06 78° ENE 02:44:50 10° SSE
Cosmos 2098 Rocket 3.7 02:34:42 10° N 02:39:59 86° E 02:46:11 10° S
Cosmos 1953 4.2 02:38:20 10° NW 02:40:27 15° W 02:40:27 15° W
SL-27 R/B 1.8 02:40:26 55° SW 02:40:54 72° WNW 02:43:42 10° NNE
Cosmos 1892 4.3 02:39:19 10° SSE 02:42:21 28° E 02:45:25 10° NNE
Cosmos 1814 Rocket 3.9 02:37:45 10° NNW 02:42:59 81° WSW 02:48:14 10° SSE
Cosmos 2322 Rocket 2.1 02:38:02 10° NNW 02:43:40 69° WSW 02:49:17 10° SSE
Cosmos 1242 Rocket 3.4 02:44:54 24° WNW 02:45:01 24° WNW 02:47:26 10° NNW
USA 234 4.2 02:43:44 22° SW 02:45:07 24° SW 02:50:13 10° WNW
SL-8 R/B 4.1 02:42:00 10° WNW 02:46:23 37° SW 02:50:46 10° SSE
Meteor 2-5 Rocket 3.8 02:43:00 19° S 02:47:23 88° W 02:53:23 10° N
SL-4 R/B 2.9 02:47:25 24° SSW 02:49:31 40° SE 02:53:40 10° ENE
Cosmos 1408 3.3 02:53:36 25° W 02:54:06 26° WNW 02:56:41 10° NNW
Cosmos 2074 Rocket 4.1 02:48:44 11° S 02:54:41 76° E 03:00:54 10° N
Okean 2 Rocket 3.6 02:50:32 10° N 02:54:53 60° E 02:59:14 10° SSE
Cosmos 1674 Rocket 3.9 02:52:26 13° S 02:56:18 65° E 03:00:42 10° NNE
Tiangong -0.2 03:00:18 16° S 03:00:59 17° SSE 03:03:05 10° ESE
ADEOS II 2.4 02:56:19 10° N 03:01:25 53° WNW 03:05:05 19° SW
Cosmos 1833 4.2 02:58:20 20° SW 03:02:23 73° WNW 03:08:03 10° NNE
Lacrosse 5 rocket 1.8 02:59:27 10° WNW 03:03:06 34° SW 03:06:36 10° SSE
IDEFIX/ARIANE 42P 4.0 03:01:48 10° N 03:06:00 25° WNW 03:09:14 14° WSW
ALOS 2.2 03:02:09 10° N 03:06:47 76° WNW 03:10:34 15° SSW
Cosmos 2184 Rocket 4.0 03:06:42 10° S 03:12:51 82° W 03:19:10 10° N
Cosmos 1378 Rocket 3.5 03:10:03 15° SSW 03:13:29 68° W 03:17:47 10° N
Cosmos 405 Rocket 2.6 03:10:30 10° N 03:14:06 78° E 03:17:44 10° SSE
CZ-2C R/B 3.3 03:14:40 10° NNE 03:19:13 44° E 03:23:38 10° S
SJ 16-02 2.4 03:16:35 16° WSW 03:19:23 30° WNW 03:23:12 10° N
ATLAS CENTAUR R/B 2.8 03:16:31 10° S 03:19:23 24° ESE 03:22:18 10° ENE
Envisat 3.3 03:14:41 10° NNE 03:19:46 68° ESE 03:24:48 10° S
Okean 1 Rocket 3.3 03:17:08 10° N 03:21:28 73° E 03:25:46 10° SSE
Cosmos 2154 Rocket 4.0 03:17:53 10° S 03:24:05 83° W 03:30:20 10° N
Nadezhda 3 Rocket 4.1 03:18:14 10° N 03:24:38 87° E 03:30:57 10° S
CZ-2C R/B 4.3 03:19:47 10° N 03:24:54 33° WNW 03:29:27 12° SW
UNK 3.8 03:20:32 10° S 03:25:06 58° W 03:29:42 10° NNW
Cosmos 158 Rocket 4.5 03:20:18 10° NNW 03:25:41 67° ENE 03:31:00 10° SSE
Cosmos 839 Rocket 4.1 03:19:57 10° NW 03:26:50 61° WSW 03:32:52 10° SSE
SL-16 R/B 3.6 03:23:43 10° WNW 03:27:33 19° W 03:30:47 12° SW
Cosmos 2322 4.2 03:24:08 10° NNW 03:29:50 67° ENE 03:35:28 10° SE
ATLAS 2AS CENTAUR R/B 2.7 03:24:47 10° NW 03:31:39 90° ESE 03:38:15 10° SE
Cosmos 2333 4.5 03:29:38 10° NW 03:35:09 49° WSW 03:40:39 10° S
NOAA 11 4.3 03:31:12 10° NNE 03:36:44 83° ESE 03:42:14 10° SSW
SL-16 R/B 3.2 03:33:29 10° SSW 03:39:10 36° W 03:44:54 10° NNW
CZ-2D R/B 3.9 03:35:52 10° NNW 03:39:35 19° WNW 03:43:17 10° WSW
Cosmos 2219 Rocket 2.2 03:35:38 10° NNW 03:41:11 60° WSW 03:46:44 10° S
BREEZE-M DEB (TANK) 2.1 03:40:08 10° WNW 03:42:59 50° NNE 03:45:00 10° E
Thor Agena Rocket 4.0 03:40:25 10° NNE 03:45:37 65° ESE 03:50:50 10° S
RESURS DK-1 3.2 03:44:14 10° NW 03:47:42 28° WSW 03:51:10 10° SSW
CZ-4 R/B 3.9 03:44:23 10° N 03:49:02 64° WNW 03:53:44 10° SSW
Cosmos 2360 Rocket 3.2 03:45:07 10° NW 03:49:44 26° WSW 03:54:20 10° SSW
COSMOS 2428 3.0 03:44:16 10° NNW 03:49:58 78° ENE 03:55:39 10° SSE
Resurs 1-4 Rocket 4.1 03:51:17 10° NNW 03:53:35 13° WNW 03:55:53 10° W
DELTA 2 R/B (1) 4.2 03:50:35 10° W 03:55:33 34° SSW 04:00:31 10° SE
Cosmos 1975 Rocket 3.6 03:53:07 10° S 03:57:20 59° E 04:01:35 10° NNE
SL-24 DEB 4.2 03:53:29 10° N 03:58:02 80° W 04:02:33 10° S
